Voltar ao catálogo

SL-14 DEB

AtivoPO
NORAD 26026·DEBRIS·🇷🇺 Russia

Lançado Sep 28, 1991 de Plesetsk Cosmodrome

Loading…

Próximas Passagens (próximas 24 horas)

TLE

AtualizadoSource: Space-Track

Época: Sep 14, 2026, 08:57 UTC

1 26026U 91068AM  26257.37298241  .00000074  00000-0  34795-3 0  9990
2 26026  82.5079 236.2281 0093653 303.0108 212.3420 12.63623946248284

Acompanhe SL-14 DEB em tempo real com AllMySat

Download on the App Store